Location: Newark
(47.5833°N, 8.1500°E)
Time: 01:28:40
(UTC+00:00)

Transit 2A - Pass Details

Date: 02 November 2020
Orbit: 594 x 964 km, 66.7° (Epoch: 25 November)

Event Time Altitude Azimuth Distance (km) Brightness Sun altitude
Rises 22:10:00 0° 179° (S) 3,618 - -55.2°
Reaches altitude 10° 22:12:49 10° 169° (S) 2,690 - -55.4°
Maximum altitude 22:18:15 31° 110° (ESE) 1,622 - -55.7°
Drops below altitude 10° 22:23:38 10° 51° (NE) 2,659 - -56.1°
Sets 22:26:23 0° 42° (NE) 3,571 - -56.2°
